Regional Weather Roundup
Issued by NWS Sioux Falls, SD

Home | Current Version | Previous Version | Graphics & Text | Print | Product List | Glossary Off
Versions: 1 2 3 4 5 6 7 8 9 10 11 12 13 14 15 16 17 18 19 20 21 22 23 24 25 26 27 28 29 30 31 32 33 34 35 36 37 38 39 40 41 42 43 44 45 46 47 48 49 50

000
ASUS43 KFSD 221402
RWRFSD

WEATHER ROUNDUP FOR SE SOUTH DAKOTA/SW MINNESOTA/NW IOWA
NATIONAL WEATHER SERVICE SIOUX FALLS SD
800 AM CST SAT NOV 22 2014

NOTE: "FAIR" INDICATES FEW OR NO CLOUDS BELOW 12,000 FEET WITH NO
SIGNIFICANT WEATHER AND OR OBSTRUCTIONS TO VISIBILITY.


SDZ038>040-050-052>070-221500-
SOUTHEAST SOUTH DAKOTA

CITY           SKY/WX    TMP DP  RH WIND       PRES   REMARKS
CHAMBERLAIN    PTCLDY    23  21  91 SE3       29.66F
HURON          PTCLDY    21  20  96 SE5       29.67F FOG     WCI  15
MADISON        FOG       23  23 100 S9        29.71F VSB<1/4 WCI  13
MITCHELL       CLEAR     25  23  92 S8        29.71F FOG     WCI  16
SIOUX FALLS    FOG       28  28 100 S6        29.74F VSB 1/4 WCI  22
WINNER         FAIR      35  24  64 SW10      29.64F WCI  27
YANKTON        CLEAR     28  27  93 SE7       29.75F WCI  21
$$

MNZ071-072-080-081-089-090-097-098-221500-
SOUTHWEST MINNESOTA

CITY           SKY/WX    TMP DP  RH WIND       PRES   REMARKS
FAIRMONT       CLOUDY    36  32  87 SW10      29.79S VSB 1
JACKSON        FOG       34  32  93 SW16      29.76F VSB 3/4 WCI  23
LUVERNE        FOG       34  32  93 S10       29.76F VSB<1/4 WCI  26
MARSHALL       CLEAR     30  27  86 SW15      29.72S WCI  19
MONTEVIDEO     CLEAR     28  27  93 SW5       29.72S WCI  23
PIPESTONE      SNOW      30  30 100 SW9       29.73F VSB<1/4 WCI  22
REDWOOD FALLS  FOG       31  31 100 S10       29.74F VSB 3/4 WCI  22
TRACY          FOG       32  32  99 SW20      29.73F VSB 1/2 WCI  21
WINDOM         FOG       34  34 100 SW15      29.75F VSB 3/4 WCI  24
WORTHINGTON    CLOUDY    34  32  93 SW17      29.75F VSB<1/4 WCI  23
$$

IAZ001>003-012>014-020>022-031-032-NEZ013-014-SDZ071-221500-
NORTHWEST IOWA

CITY           SKY/WX    TMP DP  RH WIND       PRES   REMARKS
CHEROKEE       FOG       36  36 100 SW13G18   29.81F VSB 1
DENISON        FOG       37  37 100 SW10      29.83S VSB 1/2
ESTHERVILLE    FOG       34  34 100 SW15      29.78F VSB 1/4 WCI  24
SIOUX CITY     CLOUDY    38  35  89 S9        29.81F FOG
SPENCER        FOG       35  34  96 SW13      29.79F VSB 1/2 WCI  26
$$

ABBREVIATIONS USED IN REMARKS
   TC - TEMPERATURE IN CELSIUS
  WCI - WIND CHILL INDEX
   HX - HEAT INDEX
  VSB - VISIBILITY




USA.gov is the U.S. government's official web portal to all federal, state and local government web resources and services.